Location: Kitt Peak
(31.9639°N, 111.5992°W)
Time: 15:30:44
(UTC-07:00)

Hubble Space Telescope - Pass Details

Date: 01 June 2024
Orbit: 510 x 514 km, 28.5° (Epoch: 23 June)

Event Time Altitude Azimuth Distance (km) Brightness Sun altitude
Rises 20:24:19 0° 267° (W) 2,611 5.2 -11.1°
Reaches altitude 10° 20:26:37 10° 261° (W) 1,724 4.0 -11.5°
Maximum altitude 20:30:25 44° 188° (S) 712 1.2 -12.1°
Enters shadow 20:32:48 20° 125° (SE) 1,216 1.9 -12.5°
